Regional Weather Roundup
Issued by NWS Nashville, TN

Home | Current Version | Previous Version | Text Only | Print | Product List | Glossary On
Versions: 1 2 3 4 5 6 7 8 9 10 11 12 13 14 15 16 17 18 19 20 21 22 23 24 25 26 27 28 29 30 31 32 33 34 35 36 37 38 39 40 41 42 43 44 45 46 47 48 49 50
699
ASUS44 KOHX 202110
RWROHX
MIDDLE TENNESSEE HOURLY WEATHER ROUNDUP
NATIONAL WEATHER SERVICE NASHVILLE TN
300 PM CST FRI JAN 20 2017

NOTE: "FAIR" INDICATES FEW OR NO CLOUDS BELOW 12,000 FEET WITH
NO SIGNIFICANT WEATHER AND/OR OBSTRUCTIONS TO VISIBILITY.

* THESE REPORTS ARE NOT UNDER NWS QUALITY CONTROL AND MAY NOT
  REPORT WEATHER SUCH AS PRECIPITATION AND FOG.


TNZ005>011-023>034-057-059-062>066-078-080-202200
...NORTHERN MIDDLE TENNESSEE...

CITY           SKY/WX    TMP DP  RH WIND       PRES   REMARKS
CLARKSVILLE    PTSUNNY   64  53  67 S10       29.70R
CROSSVILLE     CLOUDY    62  47  57 VRB6      29.80R
GALLATIN       PTSUNNY   68  54  60 S8G15     29.75S
DICKSON        PTSUNNY   63  53  69 S12       29.71R
NASHVILLE      PTSUNNY   67  51  56 S14G23    29.73R
PORTLAND       PTSUNNY   64  54  68 SW13      29.72S
SMYRNA         MOSUNNY   69  53  56 SW9       29.74S
SPRINGFIELD    PTSUNNY   66  54  63 S10G23    29.71R
WEST NASHVILLE MOSUNNY   64  52  63 S15       29.71R
$$
TNZ056-058-060-061-075>077-079-093>097-202200
...SOUTHERN MIDDLE TENNESSEE...

CITY           SKY/WX    TMP DP  RH WIND       PRES   REMARKS
COLUMBIA       PTSUNNY   68  61  77 S9        29.72R
MCMINNVILLE    MOSUNNY   68  52  56 SW14      29.75F
SHELBYVILLE    SUNNY     70  55  60 S12       29.75F
TULLAHOMA      PTSUNNY   64  52  63 S12       29.77S
WINCHESTER     PTSUNNY   68  52  56 S10       29.77S
$$


...KEY TO REMARKS...
VSB - VISIBILITY IN MILES
WCI - WIND CHILL INDEX
HX  - HEAT INDEX





USA.gov is the U.S. government's official web portal to all federal, state and local government web resources and services.